Regional Weather Roundup
Issued by NWS Green Bay, WI

Home | Current Version | Previous Version | Graphics & Text | Print | Product List | Glossary On
Versions: 1 2 3 4 5 6 7 8 9 10 11 12 13 14 15 16 17 18 19 20 21 22 23 24 25 26 27 28 29 30 31 32 33 34 35 36 37 38 39 40 41 42 43 44 45 46 47 48 49 50
000
ASUS43 KGRB 011611
RWRGRB

NORTH-CENTRAL AND NORTHEAST WISCONSIN REGIONAL WEATHER ROUNDUP
NATIONAL WEATHER SERVICE GREEN BAY WI
1100 AM CDT SAT AUG 01 2015

WIZ005-009-010>012-018-019-011700-
NORTH CENTRAL WISCONSIN

CITY           SKY/WX    TMP DP  RH WIND       PRES   REMARKS
IRONWOOD       SUNNY     70  55  60 W13       29.90S
MANITOWISH WTR SUNNY     71  53  54 NW12      29.94S
ARBOR VITAE    MOSUNNY   72  56  56 NW8G16    29.94S
EAGLE RIVER    PTSUNNY   71  50  47 NW8       29.94R
LAND O LAKES   PTSUNNY   71  51  48 NW6       29.94S
RHINELANDER    SUNNY     72  54  53 NW8       29.96S
PHILLIPS       SUNNY     71  53  52 NW8G16    29.96R
ANTIGO         SUNNY     72  55  55 NW12      29.95F
TOMAHAWK       SUNNY     71  53  53 NW9G18    29.96S
MERRILL        NOT AVBL
$$

WIZ013-073-011700-
NORTHEAST WISCONSIN

CITY           SKY/WX    TMP DP  RH WIND       PRES   REMARKS
IRON MOUNTAIN  SUNNY     74  52  46 NW16G23   29.89S
MARINETTE      SUNNY     73  52  46 NW6       29.88S
OCONTO         SUNNY     75  54  46 NW7       29.89F
$$

WIZ017-030-035>037-045-011700-
CENTRAL WISCONSIN

CITY           SKY/WX    TMP DP  RH WIND       PRES   REMARKS
MEDFORD        SUNNY     73  53  49 NW8       29.97S
WAUSAU         SUNNY     76  48  37 NW13G22   29.94S
MOSINEE        MOSUNNY   73  50  43 NW13G21   29.98R
MARSHFIELD     MOSUNNY   76  48  37 N13       29.97S
WISC RAPIDS    MOSUNNY   78  50  37 NW8       29.98S
STEVENS POINT  SUNNY     74  50  43 NW10      29.97S
WAUPACA        MOSUNNY   80  49  33 NW9       29.96R
SHAWANO        SUNNY     76  53  44 W9        29.93S
CLINTONVILLE   SUNNY     75  46  35 NW12      29.93S
$$

WIZ038-039-048-051-011700-
FOX VALLEY

CITY           SKY/WX    TMP DP  RH WIND       PRES   REMARKS
NWS GREEN BAY  SUNNY     76  54  46 NW14      29.92S
APPLETON       MOSUNNY   75  46  35 NW12      29.95S
OSHKOSH        MOSUNNY   77  51  40 NW12      29.95R
FOND DU LAC    MOSUNNY   78  52  40 W14       29.96R
$$

WIZ022-050-052-011700-
EAST CENTRAL WISCONSIN

CITY           SKY/WX    TMP DP  RH WIND       PRES   REMARKS
STURGEON BAY   SUNNY     73  54  49 W13       29.93R
MANITOWOC      SUNNY     77  49  37 MISG      29.92S
SHEBOYGAN      MOSUNNY   78  52  40 W10       29.94S
$$

LMZ563-521-522-541>543-011700-
LAKESHORE

STATION/POSITION TIME  TEMP    WIND        PRES    VSBY  WAVE
                       AIR SEA DIR/SP/G                  HT/PER
                 (UTC) (F)     (DEG/KT/KT) (MB)    (MI)  (FT/S)
SHEBOYGAN LKSHOR 1600   76     290/ 13/ 16 1013.8R
KEWAUNEE LKSHORE 1500   72     280/  7/ 11 1012.3S
ALGOMA MARINA    1512          270/  9/ 14   N/A
NORTHPORT PIER   1500   68     310/  8/ 11 1011.9S
N MID LAKE BUOY  1550   66 68  260/  8/  8 1011.4R         1/ 3
S GREEN BAY BUOY 1500   65 69  240/  8/  8 1014.0
CHAMBERS ISLAND  1500   71     250/  3/  7 1012.2R
MENOMINEE LKSHOR 1500   71     260/  6/  9 1012.9R
$$



USA.gov is the U.S. government's official web portal to all federal, state and local government web resources and services.